Regional Weather Roundup
Issued by NWS Charleston, WV

Home | Current Version | Previous Version | Text Only | Print | Product List | Glossary Off
Versions: 1 2 3 4 5 6 7 8 9 10 11 12 13 14 15 16 17 18 19 20 21 22 23 24 25 26 27 28

000
ASUS41 KRLX 231910
RWRRLX
West Virginia Regional Weather Roundup
National Weather Service Charleston WV
300 PM EDT WED AUG 23 2017

Note: "fair" indicates few or no clouds below 12,000 feet with no
significant weather and/or obstructions to visibility.

WVZ003-232000-
Northern Panhandle of West Virginia

CITY           SKY/WX    TMP DP  RH WIND       PRES   REMARKS
WHEELING       PTSUNNY   71  51  49 NW8       29.98F
$$

WVZ009-232000-
Northwest West Virginia

CITY           SKY/WX    TMP DP  RH WIND       PRES   REMARKS
PARKERSBURG    MOSUNNY   77  56  48 W7        30.01F
$$

WVZ006-232000-
Western West Virginia

CITY           SKY/WX    TMP DP  RH WIND       PRES   REMARKS
HUNTINGTON     MOSUNNY   77  56  48 NW7       29.99F
$$

WVZ015-232000-
West Central West Virginia

CITY           SKY/WX    TMP DP  RH WIND       PRES   REMARKS
CHARLESTON     MOSUNNY   80  58  46 VRB7      29.98F
$$

WVZ022-031-232000-
North Central West Virginia

CITY           SKY/WX    TMP DP  RH WIND       PRES   REMARKS
CLARKSBURG     MOSUNNY   79  57  46 NW9       29.96S
MORGANTOWN     PTSUNNY   74  57  55 VRB7      29.97F
$$

WVZ025-035-042-045-232000-
Southern West Virginia

CITY           SKY/WX    TMP DP  RH WIND       PRES   REMARKS
BECKLEY        MOSUNNY   76  59  55 N14       30.02F
LOGAN            N/A     75  61  60 NW7       30.00F
BLUEFIELD      CLOUDY    74  57  55 NW7       30.03F
LEWISBURG      MOSUNNY   78  55  46 W12       29.99F
$$

WVZ047-232000-
Northern Mountains of West Virginia

CITY           SKY/WX    TMP DP  RH WIND       PRES   REMARKS
ELKINS         MOSUNNY   76  57  51 NW13      29.99F
$$

WVZ052-232000-
Eastern Panhandle of West Virginia

CITY           SKY/WX    TMP DP  RH WIND       PRES   REMARKS
MARTINSBURG    MOSUNNY   80  59  48 N8        29.89F
PETERSBURG     SUNNY     84  59  42 NW3G16    29.91F
$$




USA.gov is the U.S. government's official web portal to all federal, state and local government web resources and services.